TimeCST,TemperatureF,Dew PointF,Humidity,Sea Level PressureIn,VisibilityMPH,Wind Direction,Wind SpeedMPH,Gust SpeedMPH,PrecipitationIn,Events,Conditions,WindDirDegrees,DateUTC
12:53 AM,36.0,30.0,79,30.10,10.0,NW,5.8,-,N/A,,Clear,320,2013-12-01 06:53:00
1:53 AM,34.0,30.0,85,30.10,10.0,NNW,8.1,-,N/A,,Clear,330,2013-12-01 07:53:00
2:53 AM,30.0,27.0,88,30.11,9.0,NNW,3.5,-,N/A,,Clear,340,2013-12-01 08:53:00
3:53 AM,33.1,30.0,89,30.10,9.0,NNW,5.8,-,N/A,,Clear,330,2013-12-01 09:53:00
4:53 AM,33.1,30.0,89,30.11,8.0,NNW,5.8,-,N/A,,Clear,340,2013-12-01 10:53:00
5:53 AM,33.1,28.9,85,30.12,8.0,NNW,6.9,-,N/A,,Clear,340,2013-12-01 11:53:00
6:53 AM,32.0,28.0,85,30.13,8.0,North,3.5,-,N/A,,Clear,350,2013-12-01 12:53:00
7:53 AM,32.0,28.0,85,30.14,6.0,North,5.8,-,N/A,,Clear,350,2013-12-01 13:53:00
8:53 AM,36.0,30.0,79,30.14,6.0,North,5.8,-,N/A,,Haze,10,2013-12-01 14:53:00
9:53 AM,39.0,30.0,70,30.14,8.0,NNE,3.5,-,N/A,,Clear,30,2013-12-01 15:53:00
10:53 AM,42.1,30.9,65,30.13,8.0,Calm,Calm,-,N/A,,Clear,0,2013-12-01 16:53:00
11:53 AM,45.0,30.0,56,30.11,9.0,Calm,Calm,-,N/A,,Clear,0,2013-12-01 17:53:00
12:53 PM,46.9,30.0,52,30.08,9.0,NE,4.6,-,N/A,,Clear,50,2013-12-01 18:53:00
1:53 PM,46.9,30.0,52,30.05,10.0,NE,5.8,-,N/A,,Clear,50,2013-12-01 19:53:00
2:53 PM,46.0,30.0,54,30.04,10.0,NE,3.5,-,N/A,,Clear,50,2013-12-01 20:53:00
3:53 PM,45.0,30.0,56,30.03,9.0,NE,4.6,-,N/A,,Clear,40,2013-12-01 21:53:00
4:53 PM,42.1,30.0,62,30.02,9.0,NE,5.8,-,N/A,,Clear,40,2013-12-01 22:53:00
5:53 PM,41.0,30.0,65,30.02,9.0,NE,4.6,-,N/A,,Clear,50,2013-12-01 23:53:00
6:53 PM,39.0,28.9,67,30.02,9.0,NNE,4.6,-,N/A,,Clear,20,2013-12-02 00:53:00
7:53 PM,37.9,28.9,70,30.02,8.0,NE,5.8,-,N/A,,Overcast,40,2013-12-02 01:53:00
8:53 PM,39.9,28.9,65,30.00,9.0,ENE,5.8,-,N/A,,Overcast,70,2013-12-02 02:53:00
9:53 PM,37.9,28.9,70,30.00,8.0,ENE,5.8,-,N/A,,Mostly Cloudy,70,2013-12-02 03:53:00
10:53 PM,37.0,28.9,73,29.96,8.0,ENE,6.9,-,N/A,,Scattered Clouds,70,2013-12-02 04:53:00
11:53 PM,36.0,28.9,76,29.95,7.0,East,5.8,-,N/A,,Partly Cloudy,80,2013-12-02 05:53:00